NOAA 16 DEB

Satellite information

Favourite Embed

Satellite Type and Status

DEBRISIN ORBIT

Key statistics

Satellite NOAA 16 DEB at a glance.

Uptime

9054

Days in orbit

Revolutions

≈ 14.2

Per day

Orbit

SSO

Sun Synchronous Orbit

Inclination

98.8

Latest

Satellite identification and parameters

Extended collection of information and parameters for NOAA 16 DEB.

Object identification

Identified? True

Debris? True

Object name: NOAA 16 DEB

International designator: 2000-055JE

Object number (NORAD): 41361

Object ID (CCSDS): 41361

Country: UNITED STATES OF AMERICA (US)

Current information (Y/N): Y

RCS size: SMALL

Orbital parameters

Period: 101.507 minutes

Inclination: 98.7574 deg

SMA: 7208.164 km

Apoapsis: 854.22 km

Periapsis: 805.838 km

RAAN: 228.4256 deg

Eccentricy: 0.0033561

Argument of periapsis: 167.004 deg

Mean anomaly: 193.2008 deg

Mean motion: 14.1861903 rev/day

Mean motion (dot): 0.00002833 rev/day2

B* drag term: 0.0013803 1/REarth

Two-line elements (TLE)

Creation date: July 5, 2025, 5:45 p.m.

Reference frame: TEME

Reference center: EARTH

Epoch: July 5, 2025, 8:21 a.m. UTC

TLE line 0: 0 NOAA 16 DEB

TLE line 1: 1 41361U 00055JE 25186.34816090 .00002833 00000-0 13803-2 0 9991

TLE line 2: 2 41361 98.7574 228.4256 0033561 167.0040 193.2008 14.18619030483317

Live tracking on map

Real-time ground track for satellite NOAA 16 DEB.

In-orbit conjunctions

A list of the most updated potential collisions computed for object NOAA 16 DEB.

Target Orbit TCA Probability of collision Miss distance Type
FENGYUN 1C DEB SSO 2025-04-17 03:42:33 0.0002276693 64.0 (m) DEBRIS
CZ-6A DEB LEO 2025-01-20 15:13:41 0.0003274522 497.0 (m) DEBRIS
NOAA 16 DEB SSO 2024-07-11 01:47:05 0.0001073049 84.0 (m) DEBRIS

Associated space launch

The NOAA K, L and M POES satellites begin the fifth generation of improved environmental monitoring in support of NOAA missions. The instrument payload has significant improvements and additions/deletions. The instrument changes have effected the spacecraft subsystems and data formats.

NOAA 16 DEB was lifted into orbit during the mission ‘Titan II SLV | NOAA 16’, on board a Titan II SLV space rocket.

The launch took place on Sept. 21, 2000, 10:22 a.m. from Space Launch Complex 4W.

For more information about the launch, click the button.

Launch to space Titan II SLV | NOAA 16
Titan II SLV | NOAA 16

Agency: N/A

Status: Launch Successful

Launch date: Sept. 21, 2000, 10:22 a.m. UTC

Rocket: Titan II SLV

Launch pad: Space Launch Complex 4W

Location: Vandenberg SFB, CA, USA

...

Latest news about this satellite

There are no fresh news available about this satellite. Check back as we update our databases every day.


Newsletter sign-up

Weekly statistics, charts and insights to help you stay on top of the space industry.